Simultaneous Nadir Overpasses (SNOs) Predictions

Prediction of SNOs between NOAA-19 and METOP-C Satellite Orbit:

Table of predicted SNOs for the next 14.0 days since TLE Epoch: 8/9/2025
Index Date (NOAA-19) Time (NOAA-19) Lat,Lon (NOAA-19) SZA (NOAA-19 ) Date (METOP-C) Time (METOP-C) Lat,Lon (METOP-C) SZA (METOP-C ) Distance(km) Time Diff (sec)
1 08/13/2025 02:25:45 -80.75, 36.87 107.29 08/13/2025 02:26:53 -80.75, 36.77 107.26 1.70 68
2 08/13/2025 03:16:48 80.74,-155.66 72.76 08/13/2025 03:17:33 80.73,-155.68 72.78 0.45 45
3 08/13/2025 04:07:41 -80.74, 11.51 107.25 08/13/2025 04:08:14 -80.73, 11.65 107.21 2.56 33
4 08/13/2025 04:58:43 80.71, 179.35 72.85 08/13/2025 04:58:54 80.72, 179.20 72.83 2.75 11
5 08/13/2025 05:49:36 -80.72, -13.48 107.16 08/13/2025 05:49:35 -80.72, -13.47 107.16 0.37 1
6 08/13/2025 06:40:38 80.69, 154.35 72.94 08/13/2025 06:40:14 80.69, 154.42 72.94 1.53 24
7 08/13/2025 07:31:30 -80.68, -38.13 107.02 08/13/2025 07:30:55 -80.69, -38.25 107.06 2.08 35
8 08/13/2025 08:22:33 80.67, 129.34 73.03 08/13/2025 08:21:35 80.67, 129.30 72.99 0.84 58



Historial Predications of SNOs between NOAA-19 and METOP-C
